Location: Godiavel Galaoual
(15.2485°N, 12.6604°W)
Time: 01:41:44
(UTC+00:00)

N. Korean satellite - Visible Passes

Search period start: 02 December 2021 00:00
Search period end: 12 December 2021 00:00
Orbit: 447 x 495 km, 97.3° (Epoch: 01 December)

Date Brightness Start Highest point End Pass type
(mag) Time Alt. Az. Time Alt. Az. Time Alt. Az.
02 Dec 6.2 05:56:42 10° N 06:00:02 70° WNW 06:03:24 10° SSW visible
03 Dec 8.2 05:28:31 10° NNE 05:31:35 33° E 05:34:40 10° SSE visible
04 Dec 9.9 05:01:54 10° ENE 05:03:04 11° E 05:04:15 10° ESE visible
04 Dec 8.0 06:33:51 10° NW 06:36:03 17° WNW 06:38:16 10° WSW visible
05 Dec 6.5 06:04:22 10° N 06:07:38 49° WNW 06:10:56 10° SSW visible
06 Dec 7.5 05:35:55 10° NNE 05:39:09 45° E 05:42:26 10° S visible
07 Dec 9.6 05:08:34 10° ENE 05:10:38 15° E 05:12:43 10° SE visible
07 Dec 8.3 06:42:01 10° NW 06:43:34 13° WNW 06:45:06 10° WSW visible
08 Dec 6.9 06:12:00 10° N 06:15:08 36° WNW 06:18:18 10° SW visible
09 Dec 6.8 05:43:16 10° NNE 05:46:38 64° E 05:50:02 10° S visible
10 Dec 9.1 05:15:30 10° NE 05:18:05 20° E 05:20:42 10° SSE visible
11 Dec 7.3 06:19:35 10° NNW 06:22:31 27° WNW 06:25:28 10° SW visible
